W8SZ Weather Reports


Display with metric or nautical units.
time (UTC)temp
F
wind
direction
speed
MPH
gust
MPH
rain 1hr
in
rain 24hr
in
rain mn
in
humidity
%
barometer
mb
20181120080353 23 1 3.0 0.0 0.00 0.00 0.00 94 1016.4
20181120075849 23 1 4.0 0.0 0.00 0.00 0.00 94 1016.4
20181120075412 23 2 4.0 0.0 0.00 0.00 0.00 94 1016.5
20181120074838 23 2 4.0 0.0 0.00 0.00 0.00 94 1016.5
20181120074359 23 3 2.0 0.0 0.00 0.00 0.00 94 1016.5
20181120073842 24 3 4.0 0.0 0.00 0.00 0.00 94 1016.2
20181120073427 24 3 3.0 0.0 0.00 0.00 0.00 94 1016.5
20181120072838 24 3 3.0 0.0 0.00 0.00 0.00 94 1016.3
20181120072344 24 3 4.0 0.0 0.00 0.00 0.00 93 1016.5
20181120071849 24 3 1.0 0.0 0.00 0.00 0.00 93 1016.2
20181120071352 24 1 3.0 0.0 0.00 0.00 0.00 93 1016.6
20181120070859 24 1 2.0 0.0 0.00 0.00 0.00 93 1016.2
20181120070404 24 1 3.0 0.0 0.00 0.00 0.00 93 1016.3
20181120065856 24 1 3.0 0.0 0.00 0.00 0.00 93 1016.1
20181120065341 24 1 2.0 0.0 0.00 0.00 0.00 93 1016.3
20181120064844 24 1 2.0 0.0 0.00 0.00 0.00 93 1016.3
20181120064344 24 3 3.0 0.0 0.00 0.00 0.00 93 1016.0
20181120063846 24 3 7.0 0.0 0.00 0.00 0.00 93 1016.2
20181120063412 24 7 2.0 0.0 0.00 0.00 0.00 94 1016.3
20181120062845 25 7 2.0 0.0 0.00 0.00 0.00 94 1015.8
20181120062349 25 8 1.0 0.0 0.00 0.00 0.00 94 1016.3
20181120061915 25 8 5.0 0.0 0.00 0.00 0.00 94 1016.1
20181120061339 25 7 3.0 0.0 0.00 0.00 0.00 94 1015.8
20181120060842 25 7 2.0 0.0 0.00 0.00 0.00 94 1016.5
20181120060407 25 7 1.0 0.0 0.00 0.00 0.00 95 1016.3
20181120055841 25 6 5.0 0.0 0.00 0.00 0.00 95 1016.2
20181120055343 25 6 3.0 0.0 0.00 0.00 0.00 96 1015.9
20181120054905 25 6 3.0 0.0 0.00 0.00 0.00 96 1015.7
20181120054411 25 6 5.0 0.0 0.00 0.00 0.00 96 1016.0
20181120053837 25 8 4.0 0.0 0.00 0.00 0.00 96 1016.3
20181120053403 25 8 7.0 0.0 0.00 0.00 0.00 96 1016.4
20181120052856 25 8 6.0 0.0 0.00 0.00 0.00 96 1016.2
20181120052340 25 9 5.0 0.0 0.00 0.00 0.00 96 1016.1
20181120051846 25 9 2.0 0.0 0.00 0.00 0.00 96 1015.9
20181120051350 25 8 8.0 0.0 0.00 0.00 0.00 96 1016.1
20181120050855 26 8 6.0 0.0 0.00 0.00 0.00 96 1016.1
20181120050401 26 4 7.0 0.0 0.00 0.00 0.00 96 1016.2
20181120045850 26 4 5.0 0.0 0.00 0.00 0.01 96 1016.0
20181120045354 26 2 8.0 0.0 0.00 0.00 0.01 95 1015.8
20181120044857 26 1 4.0 0.0 0.00 0.00 0.01 95 1016.2
20181120044338 26 13 8.0 0.0 0.00 0.00 0.01 94 1016.2
20181120043839 26 15 3.0 0.0 0.00 0.00 0.01 94 1016.0
20181120043406 26 17 7.0 0.0 0.00 0.00 0.01 94 1015.9
20181120042839 26 11 7.0 0.0 0.00 0.00 0.01 95 1016.0
20181120042404 26 15 5.0 0.0 0.00 0.00 0.01 95 1016.0
20181120041846 26 16 8.0 0.0 0.00 0.00 0.01 96 1016.1
20181120041350 26 15 5.0 0.0 0.00 0.00 0.01 97 1016.1
20181120040912 27 17 9.0 0.0 0.00 0.00 0.01 98 1016.1
20181120040349 27 19 6.0 0.0 0.00 0.00 0.01 99 1015.7
20181120035842 27 22 3.0 0.0 0.00 0.00 0.00 98 1016.2
20181120035403 27 5 4.0 0.0 0.00 0.00 0.00 99 1015.9
20181120034842 27 4 4.0 0.0 0.00 0.00 0.00 98 1015.9
20181120034346 27 10 6.0 0.0 0.00 0.00 0.00 99 1015.7
20181120033849 28 14 3.0 0.0 0.00 0.00 0.00 99 1016.2
20181120033352 28 12 6.0 0.0 0.00 0.00 0.00 99 1016.0
20181120032845 28 21 5.0 0.0 0.00 0.00 0.00 99 1016.1
20181120032351 28 25 5.0 0.0 0.00 0.00 0.00 99 1015.8
20181120031854 28 20 5.0 0.0 0.00 0.00 0.00 99 1015.5
20181120031359 28 47 11.0 0.0 0.00 0.00 0.00 99 1015.4
20181120030842 28 21 9.0 0.0 0.00 0.00 0.00 99 1015.8
20181120030405 28 27 17.0 0.0 0.00 0.00 0.00 99 1015.6
20181120025858 29 28 15.0 0.0 0.00 0.00 0.00 99 1015.7
20181120025339 29 22 6.0 0.0 0.00 0.00 0.00 100 1015.4
20181120024845 29 14 8.0 0.0 0.00 0.00 0.00 100 1015.1
20181120024349 29 6 14.0 0.0 0.00 0.00 0.00 100 1015.2
20181120023854 29 18 11.0 0.0 0.00 0.00 0.00 100 1015.0
20181120023358 29 27 6.0 0.0 0.00 0.00 0.00 100 1014.9
20181120022854 29 33 9.0 0.0 0.00 0.00 0.00 100 1015.2
20181120022355 29 16 15.0 0.0 0.00 0.00 0.00 100 1015.2
20181120021900 29 23 14.0 0.0 0.00 0.00 0.00 100 1014.9
20181120021345 29 31 18.0 0.0 0.00 0.00 0.00 100 1014.6
20181120020848 29 27 15.0 0.0 0.00 0.00 0.00 100 1014.8
20181120020351 29 28 17.0 0.0 0.00 0.00 0.00 100 1014.9
20181120015845 29 12 17.0 0.0 0.00 0.00 0.00 100 1014.2
20181120015351 29 272 2.0 0.0 0.00 0.00 0.00 100 1014.3
20181120014840 29 254 7.0 0.0 0.00 0.00 0.00 100 1014.4
20181120014348 29 254 1.0 0.0 0.00 0.00 0.00 100 1014.4
20181120013837 29 254 0.0 0.0 0.00 0.00 0.00 100 1014.7
20181120013348 29 254 2.0 0.0 0.00 0.00 0.00 100 1014.7
20181120012846 29 254 1.0 0.0 0.00 0.00 0.00 100 1015.1
20181120012335 29 254 2.0 0.0 0.00 0.00 0.00 100 1014.6
20181120011906 29 254 1.0 0.0 0.00 0.00 0.00 100 1014.8
20181120011332 29 254 2.0 0.0 0.00 0.00 0.00 100 1014.4
20181120010903 29 254 0.0 0.0 0.00 0.00 0.00 100 1014.8
20181120010352 29 254 1.0 0.0 0.00 0.00 0.00 100 1014.9
20181120005835 29 254 1.0 0.0 0.00 0.00 0.00 100 1014.8
20181120005344 29 254 1.0 0.0 0.00 0.00 0.00 100 1014.5
20181120004836 29 254 0.0 0.0 0.00 0.00 0.00 100 1014.8
20181120004347 29 254 0.0 0.0 0.00 0.00 0.00 100 1014.7
20181120003857 29 254 0.0 0.0 0.00 0.00 0.00 100 1014.8
20181120003348 29 254 0.0 0.0 0.00 0.00 0.00 100 1014.7
20181120002850 29 254 0.0 0.0 0.00 0.00 0.00 100 1014.7
20181120002341 29 254 0.0 0.0 0.00 0.00 0.00 100 1014.7
20181120001851 29 254 0.0 0.0 0.00 0.00 0.00 100 1014.9
20181120001338 29 254 0.0 0.0 0.00 0.00 0.00 100 1014.9
20181120000850 29 254 0.0 0.0 0.00 0.00 0.00 100 1015.1
20181120000341 29 254 0.0 0.0 0.00 0.00 0.00 100 1014.6
20181119235839 29 254 1.0 0.0 0.00 0.00 0.00 100 1014.8
20181119235346 29 254 0.0 0.0 0.00 0.00 0.00 100 1014.6
20181119234836 30 254 0.0 0.0 0.00 0.00 0.00 100 1014.6
20181119234346 30 254 0.0 0.0 0.00 0.00 0.00 100 1014.6
20181119233838 30 254 0.0 0.0 0.00 0.00 0.00 100 1014.3
20181119233348 30 254 1.0 0.0 0.00 0.00 0.00 100 1014.6
20181119232850 30 254 0.0 0.0 0.00 0.00 0.00 100 1014.3
20181119232341 30 254 0.0 0.0 0.00 0.00 0.00 100 1014.6
20181119231852 30 254 0.0 0.0 0.00 0.00 0.00 100 1014.6
20181119231340 30 254 0.0 0.0 0.00 0.00 0.00 100 1014.3
20181119230849 30 254 0.0 0.0 0.00 0.00 0.00 99 1014.6
20181119230359 30 254 0.0 0.0 0.00 0.00 0.00 100 1014.4
20181119225840 30 254 1.0 0.0 0.00 0.00 0.00 100 1014.0
20181119225347 30 254 1.0 0.0 0.00 0.00 0.00 99 1014.0
20181119224859 30 254 0.0 0.0 0.00 0.00 0.00 99 1014.4
20181119224346 30 254 0.0 0.0 0.00 0.00 0.00 99 1013.9
20181119223837 30 254 0.0 0.0 0.00 0.00 0.00 98 1014.4
20181119223346 30 254 0.0 0.0 0.00 0.00 0.00 98 1014.2
20181119222844 30 254 0.0 2.0 0.00 0.00 0.00 98 1014.0
20181119222349 30 254 0.0 1.0 0.00 0.00 0.00 98 1014.1
20181119221837 31 254 0.0 1.0 0.00 0.00 0.00 97 1013.8
20181119221344 31 254 0.0 2.0 0.00 0.00 0.00 98 1014.3
20181119220854 31 254 1.0 2.0 0.00 0.00 0.00 97 1013.8
20181119220402 31 254 0.0 1.0 0.00 0.00 0.00 97 1013.8
20181119215856 31 254 0.0 1.0 0.00 0.00 0.00 97 1013.9
20181119215346 31 254 0.0 1.0 0.00 0.00 0.00 96 1014.3
20181119214837 31 254 0.0 1.0 0.00 0.00 0.00 96 1013.7
20181119214346 31 254 1.0 2.0 0.00 0.00 0.00 95 1014.3
20181119213853 31 254 0.0 2.0 0.00 0.00 0.00 95 1013.7
20181119213402 32 254 0.0 1.0 0.00 0.00 0.00 95 1013.6
20181119212841 32 254 0.0 2.0 0.00 0.00 0.00 94 1013.7
20181119212348 32 254 0.0 2.0 0.00 0.00 0.00 94 1014.0
20181119211834 32 254 0.0 2.0 0.00 0.00 0.00 93 1013.8
20181119211344 32 254 0.0 2.0 0.00 0.00 0.00 92 1013.7
20181119210835 32 254 0.0 2.0 0.00 0.00 0.00 92 1013.6
20181119210403 32 254 0.0 2.0 0.00 0.00 0.00 91 1013.5
20181119205842 33 254 0.0 4.0 0.00 0.00 0.00 89 1013.5
20181119205407 33 254 1.0 7.0 0.00 0.00 0.00 88 1013.8
20181119204852 33 254 1.0 7.0 0.00 0.00 0.00 86 1013.9
20181119204338 33 254 2.0 4.0 0.00 0.00 0.00 84 1013.5
20181119203851 33 254 2.0 4.0 0.00 0.00 0.00 83 1013.4
20181119203420 33 254 1.0 2.0 0.00 0.00 0.00 83 1013.6
20181119202837 33 254 0.0 6.0 0.00 0.00 0.00 82 1013.3
20181119202344 33 253 1.0 6.0 0.00 0.00 0.00 82 1013.2
20181119201911 33 254 2.0 6.0 0.00 0.00 0.00 82 1013.1
20181119201336 33 254 3.0 6.0 0.00 0.00 0.00 81 1013.3
20181119200844 33 254 2.0 6.0 0.00 0.00 0.00 81 1013.3
20181119200345 34 254 3.0 9.0 0.00 0.00 0.00 81 1013.4
20181119195835 34 254 3.0 9.0 0.00 0.00 0.00 82 1013.5
20181119195342 34 253 3.0 5.0 0.00 0.00 0.00 82 1013.6
20181119194848 34 253 2.0 5.0 0.00 0.00 0.00 82 1013.4
20181119194335 34 253 3.0 4.0 0.00 0.00 0.00 83 1013.4
20181119193841 34 253 2.0 5.0 0.00 0.00 0.00 82 1013.5
20181119193348 34 253 2.0 5.0 0.00 0.00 0.00 82 1013.7
20181119192848 33 253 1.0 5.0 0.00 0.00 0.00 83 1013.6
20181119192359 33 253 1.0 7.0 0.00 0.00 0.00 83 1013.9
20181119191845 33 253 1.0 7.0 0.00 0.00 0.00 83 1013.8
20181119191353 33 253 3.0 5.0 0.00 0.00 0.00 83 1013.8
20181119190842 33 253 3.0 5.0 0.00 0.00 0.00 83 1013.5
20181119190349 33 253 3.0 5.0 0.00 0.00 0.00 83 1013.9
20181119185848 33 253 2.0 5.0 0.00 0.00 0.00 83 1013.7
20181119185338 33 253 3.0 5.0 0.00 0.00 0.00 83 1014.0
20181119184844 33 253 3.0 5.0 0.00 0.00 0.00 84 1013.8
20181119184353 33 253 0.0 5.0 0.00 0.00 0.00 84 1014.3
20181119183903 33 253 2.0 7.0 0.00 0.00 0.00 84 1013.8
20181119183340 33 253 5.0 7.0 0.00 0.00 0.00 84 1013.9
20181119182906 33 253 3.0 8.0 0.00 0.00 0.00 84 1014.5
20181119182353 33 253 4.0 8.0 0.00 0.00 0.00 85 1014.2
20181119181901 32 253 2.0 6.0 0.00 0.00 0.00 85 1013.9
20181119181348 32 253 3.0 6.0 0.00 0.00 0.00 85 1014.0
20181119180852 32 253 3.0 8.0 0.00 0.00 0.00 85 1014.3
20181119180401 32 253 4.0 8.0 0.00 0.00 0.00 85 1014.2
20181119175837 32 253 3.0 7.0 0.00 0.00 0.00 85 1014.3
20181119175346 32 253 2.0 7.0 0.00 0.00 0.00 85 1014.3
20181119174852 32 254 3.0 7.0 0.00 0.00 0.00 86 1014.7
20181119174339 32 253 3.0 8.0 0.00 0.00 0.00 86 1014.1
20181119173849 32 253 5.0 8.0 0.00 0.00 0.00 86 1014.3
20181119173345 32 253 2.0 9.0 0.00 0.00 0.00 85 1014.8
20181119172835 32 254 4.0 9.0 0.00 0.00 0.00 85 1014.8
20181119172347 32 254 5.0 7.0 0.00 0.00 0.00 86 1014.9
20181119171832 32 254 3.0 7.0 0.00 0.00 0.00 87 1014.6
20181119171403 32 253 2.0 8.0 0.00 0.00 0.00 87 1015.4
20181119170847 31 254 3.0 8.0 0.00 0.00 0.00 87 1015.0
20181119170352 31 254 5.0 7.0 0.00 0.00 0.00 88 1015.1
20181119165850 31 254 3.0 5.0 0.00 0.00 0.00 88 1014.9
20181119165338 31 254 3.0 6.0 0.00 0.00 0.00 88 1015.4
20181119164846 31 254 3.0 6.0 0.00 0.00 0.00 88 1014.8
20181119164337 31 254 4.0 5.0 0.00 0.00 0.00 88 1015.2
20181119163845 31 254 3.0 5.0 0.00 0.00 0.00 88 1015.3
20181119163352 30 254 3.0 7.0 0.00 0.00 0.00 87 1015.4
20181119162849 30 254 3.0 7.0 0.00 0.00 0.00 88 1015.2
20181119162337 30 254 3.0 5.0 0.00 0.00 0.00 88 1015.3
20181119161839 30 254 2.0 0.0 0.00 0.00 0.00 88 1015.5
20181119161349 30 254 3.0 0.0 0.00 0.00 0.00 88 1015.2
20181119160900 29 254 0.0 0.0 0.00 0.00 0.00 88 1015.3
20181119160348 29 254 3.0 0.0 0.00 0.00 0.00 88 1015.5
20181119155851 29 254 0.0 0.0 0.00 0.00 0.00 88 1015.3
20181119155341 29 254 1.0 0.0 0.00 0.00 0.00 88 1015.9
20181119154849 29 254 2.0 0.0 0.00 0.00 0.00 88 1015.6
20181119154337 28 254 1.0 0.0 0.00 0.00 0.00 88 1015.2
20181119153848 28 254 1.0 0.0 0.00 0.00 0.00 87 1015.3
20181119153359 28 254 1.0 0.0 0.00 0.00 0.00 88 1015.4
20181119152840 28 254 4.0 0.0 0.00 0.00 0.00 87 1015.4
20181119152333 28 254 4.0 0.0 0.00 0.00 0.00 87 1016.1
20181119151843 27 254 1.0 0.0 0.00 0.00 0.00 87 1015.9
20181119151353 27 254 2.0 0.0 0.00 0.00 0.00 87 1016.0
20181119150841 27 254 2.0 0.0 0.00 0.00 0.00 87 1016.0
20181119150350 27 254 2.0 0.0 0.00 0.00 0.00 87 1016.1
20181119145849 27 254 4.0 0.0 0.00 0.00 0.00 87 1015.9
20181119145338 27 254 1.0 0.0 0.00 0.00 0.00 88 1016.5
20181119144851 27 254 1.0 0.0 0.00 0.00 0.00 87 1016.4
20181119144402 27 254 2.0 0.0 0.00 0.00 0.00 88 1015.9
20181119143850 26 254 1.0 0.0 0.00 0.00 0.00 89 1016.3
20181119143400 26 254 3.0 0.0 0.00 0.00 0.00 89 1016.3
20181119142842 26 254 1.0 0.0 0.00 0.00 0.00 89 1016.2
20181119142351 26 254 1.0 0.0 0.00 0.00 0.00 89 1016.2
20181119141841 26 254 2.0 0.0 0.00 0.00 0.00 90 1016.5
20181119141406 26 254 1.0 0.0 0.00 0.00 0.00 91 1016.9
20181119140857 25 254 2.0 0.0 0.00 0.00 0.00 91 1016.7
20181119140345 25 254 1.0 0.0 0.00 0.00 0.00 91 1016.8
20181119135845 25 254 2.0 0.0 0.00 0.00 0.00 91 1016.4
20181119135333 25 254 2.0 0.0 0.00 0.00 0.00 91 1016.7
20181119134842 25 254 0.0 0.0 0.00 0.00 0.00 91 1017.3
20181119134333 25 254 0.0 0.0 0.00 0.00 0.00 91 1017.0
20181119133842 25 254 1.0 0.0 0.00 0.00 0.00 91 1017.0
20181119133412 25 254 1.0 0.0 0.00 0.00 0.00 92 1016.9
20181119132848 24 254 0.0 0.0 0.00 0.00 0.00 91 1016.9
20181119132336 24 254 1.0 0.0 0.00 0.00 0.00 91 1016.7
20181119131846 24 254 1.0 0.0 0.00 0.00 0.00 91 1016.7
20181119131332 24 254 2.0 0.0 0.00 0.00 0.00 91 1016.8
20181119130842 24 254 1.0 0.0 0.00 0.00 0.00 91 1016.3
20181119130337 24 254 2.0 0.0 0.00 0.00 0.00 91 1016.3
20181119125836 24 254 1.0 0.0 0.00 0.00 0.00 91 1016.9
20181119125343 24 254 1.0 0.0 0.00 0.00 0.00 91 1016.6
20181119124832 24 254 0.0 0.0 0.00 0.00 0.00 91 1017.0
20181119124343 24 254 3.0 0.0 0.00 0.00 0.00 91 1016.7
20181119123833 24 254 0.0 0.0 0.00 0.00 0.00 90 1017.0
20181119123343 24 254 0.0 0.0 0.00 0.00 0.00 90 1016.8
20181119122843 24 254 1.0 0.0 0.00 0.00 0.00 90 1016.9
20181119122355 24 254 2.0 0.0 0.00 0.00 0.00 90 1017.0
20181119121845 24 254 1.0 0.0 0.00 0.00 0.00 90 1017.0
20181119121336 24 254 0.0 0.0 0.00 0.00 0.00 91 1017.2
20181119120844 24 254 0.0 0.0 0.00 0.00 0.00 90 1016.9
20181119120354 24 254 4.0 0.0 0.00 0.00 0.00 89 1016.8
20181119115854 24 254 1.0 0.0 0.00 0.00 0.00 89 1017.3
20181119115344 24 254 2.0 0.0 0.00 0.00 0.00 89 1017.2
20181119114834 24 254 0.0 0.0 0.00 0.00 0.00 89 1017.2
20181119114347 24 254 2.0 0.0 0.00 0.00 0.00 89 1017.2
20181119113838 24 254 2.0 0.0 0.00 0.00 0.00 89 1017.5
20181119113348 24 254 0.0 0.0 0.00 0.00 0.00 90 1017.3
20181119112851 24 254 2.0 0.0 0.00 0.00 0.00 89 1017.1
20181119112338 24 254 1.0 0.0 0.00 0.00 0.00 90 1017.0
20181119111843 24 254 2.0 0.0 0.00 0.00 0.00 90 1017.0
20181119111333 24 254 2.0 0.0 0.00 0.00 0.00 90 1017.1
20181119110844 24 254 1.0 0.0 0.00 0.00 0.00 91 1017.1
20181119110353 24 254 0.0 0.0 0.00 0.00 0.00 90 1017.1
20181119105832 24 254 2.0 0.0 0.00 0.00 0.00 90 1017.1
20181119105342 24 254 0.0 0.0 0.00 0.00 0.00 90 1017.2
20181119104851 24 254 0.0 0.0 0.00 0.00 0.00 90 1017.0
20181119104342 24 254 0.0 0.0 0.00 0.00 0.00 90 1017.3
20181119103853 24 254 0.0 0.0 0.00 0.00 0.00 90 1017.4
20181119103403 24 254 0.0 0.0 0.00 0.00 0.00 90 1017.5
20181119102841 24 254 0.0 0.0 0.00 0.00 0.00 90 1017.7
20181119102332 24 254 0.0 0.0 0.00 0.00 0.00 90 1017.2
20181119101905 24 254 1.0 0.0 0.00 0.00 0.00 90 1017.5
20181119101334 24 254 0.0 0.0 0.00 0.00 0.00 90 1017.4
20181119100842 24 254 0.0 0.0 0.00 0.00 0.00 89 1017.6
20181119100351 24 254 0.0 0.0 0.00 0.00 0.00 89 1017.6
20181119095833 24 254 0.0 0.0 0.00 0.00 0.00 89 1017.5
20181119095343 24 254 0.0 0.0 0.00 0.00 0.00 88 1017.1
20181119094833 24 254 0.0 0.0 0.00 0.00 0.00 88 1017.4
20181119094342 24 254 0.0 0.0 0.00 0.00 0.00 88 1017.4
20181119093846 24 254 1.0 0.0 0.00 0.00 0.00 88 1017.6
20181119093355 24 254 0.0 0.0 0.00 0.00 0.00 87 1017.1
20181119092834 24 254 0.0 0.0 0.00 0.00 0.00 87 1017.2
20181119092346 24 254 0.0 0.0 0.00 0.00 0.00 87 1017.5
20181119091835 24 254 0.0 0.0 0.00 0.00 0.00 87 1017.3
20181119091346 24 254 0.0 0.0 0.00 0.00 0.00 87 1017.2
20181119090852 24 254 0.0 0.0 0.00 0.00 0.00 87 1017.3
20181119090405 24 254 1.0 0.0 0.00 0.00 0.00 86 1017.8
20181119085842 24 254 0.0 0.0 0.00 0.00 0.00 86 1018.1
20181119085332 24 254 0.0 0.0 0.00 0.00 0.00 85 1017.8
20181119084845 24 254 0.0 0.0 0.00 0.00 0.00 86 1017.7
20181119084355 24 254 1.0 0.0 0.00 0.00 0.00 85 1017.9
20181119083844 24 254 0.0 0.0 0.00 0.00 0.00 85 1017.9
20181119083354 24 254 3.0 0.0 0.00 0.00 0.00 85 1017.9
20181119082834 24 254 2.0 0.0 0.00 0.00 0.00 85 1018.0
20181119082344 24 254 0.0 0.0 0.00 0.00 0.00 85 1018.0
20181119081835 24 254 1.0 0.0 0.00 0.00 0.00 86 1018.1
20181119081347 24 254 1.0 0.0 0.00 0.00 0.00 86 1017.9
20181119080836 24 254 0.0 0.0 0.00 0.00 0.00 86 1018.1